This is the latest recevied weather packets stored in our database for station/object KD6VEX-1. If no packets are shown the sender has not sent any weather packets the latest 10 day(s).
| Time | Temp. | Humidity | Pressure | Rain* | Wind** | Luminosity | Snow |
|---|---|---|---|---|---|---|---|
| 1777853631 | 17.78° C | 53% | 1012.9 hPa | 0 mm | - | - | - |
| 1777853331 | 17.78° C | 54% | 1012.9 hPa | 0 mm | - | - | - |
| 1777853031 | 18.33° C | 54% | 1012.9 hPa | 0 mm | - | - | - |
| 1777852731 | 18.33° C | 54% | 1012.8 hPa | 0 mm | - | - | - |
| 1777852431 | 18.33° C | 55% | 1012.7 hPa | 0 mm | - | - | - |
| 1777852131 | 18.89° C | 55% | 1012.6 hPa | 0 mm | - | - | - |
| 1777851831 | 18.89° C | 55% | 1012.6 hPa | 0 mm | - | - | - |
| 1777851531 | 18.89° C | 55% | 1012.6 hPa | 0 mm | - | - | - |
| 1777851231 | 18.89° C | 54% | 1012.6 hPa | 0 mm | - | - | - |
| 1777850931 | 18.89° C | 54% | 1012.4 hPa | 0 mm | - | - | - |
| 1777850631 | 18.89° C | 54% | 1012.4 hPa | 0 mm | - | - | - |
| 1777850331 | 19.44° C | 53% | 1012.5 hPa | 0 mm | - | - | - |
| 1777850031 | 19.44° C | 54% | 1012.5 hPa | 0 mm | - | - | - |
| 1777849731 | 19.44° C | 55% | 1012.6 hPa | 0 mm | - | - | - |
| 1777849431 | 20° C | 53% | 1012.5 hPa | 0 mm | - | - | - |
| 1777849131 | 20° C | 53% | 1012.5 hPa | 0 mm | - | - | - |
| 1777848831 | 20° C | 52% | 1012.6 hPa | 0 mm | - | - | - |
| 1777848531 | 20° C | 53% | 1012.7 hPa | 0 mm | - | - | - |
| 1777848231 | 20° C | 54% | 1012.7 hPa | 0 mm | - | - | - |
| 1777847931 | 20° C | 54% | 1012.8 hPa | 0 mm | - | - | - |
| 1777847631 | 19.44° C | 55% | 1012.8 hPa | 0 mm | - | - | - |
| 1777847331 | 19.44° C | 54% | 1012.7 hPa | 0 mm | - | - | - |
| 1777847031 | 19.44° C | 54% | 1012.9 hPa | 0 mm | - | - | - |
| 1777846731 | 20° C | 54% | 1013 hPa | 0 mm | - | - | - |
| 1777846431 | 20° C | 55% | 1013.1 hPa | 0 mm | - | - | - |
* Rain latest hour (hover to see other rain measurements)
** Current wind speed in m/s (hover to see current wind gust speed)